User: anonymous   Login
Location: Unspecified
(0.0000°N, 0.0000°E)
Time: 17:47:59
(UTC+00:00)
Language:

Hubble Space Telescope - Orbit

View from above orbital plane
View from above orbital plane
View from above satellite
View from above satellite

Ground track
Ground track

The orbit data is extracted from the following two-line orbital elements,

1 20580U 90037B   15186.92233263  .00001821  00000-0  10557-3 0  9998
2 20580 028.4707 030.5764 0003160 079.8202 068.5225 15.07521460182648
Epoch (UTC): 05 July 2015 22:08:09
Eccentricity: 0.0003160
inclination: 28.4707°
perigee height: 541 km
apogee height: 546 km
right ascension of ascending node: 30.5764°
argument of perigee: 79.8202°
revolutions per day: 15.07521460
mean anomaly at epoch: 68.5225°
orbit number at epoch: 18264

The dashed part of the orbit path shows where the satellite is in the earth's shadow,  

DLR